When you browse on this site, cookies collect data to enhance your experience and personalize the content and advertising you see.
Visit our Privacy Policy to learn more. By continuing to use the site, you agree to this use of cookies and data.

Meteo orario Reims

Oggi, 11 Agosto, Martedi

Tempo Temperatura Precipitazioni Vento Pressione Umidità
00:00 +22°C° 0 mm 1 m/s 752 mm Hg 89%
01:00 +22°C° 0 mm 1 m/s 752 mm Hg 89%
02:00 +22°C° 0 mm 1 m/s 752 mm Hg 88%
03:00 +20°C° 0 mm 0 m/s 752 mm Hg 88%
04:00 +21°C° 0 mm 0 m/s 752 mm Hg 85%
05:00 +21°C° 0 mm 0 m/s 752 mm Hg 82%
06:00 +24°C° 0 mm 1 m/s 752 mm Hg 78%
07:00 +24°C° 0 mm 0 m/s 753 mm Hg 71%
08:00 +26°C° 0 mm 0 m/s 753 mm Hg 63%
09:00 +29°C° 0 mm 0 m/s 753 mm Hg 56%
10:00 +30°C° 0 mm 0 m/s 753 mm Hg 50%
11:00 +34°C° 0 mm 1 m/s 753 mm Hg 43%
12:00 +35°C° 0 mm 1 m/s 753 mm Hg 37%
13:00 +35°C° 0 mm 1 m/s 752 mm Hg 35%
14:00 +36°C° 0 mm 1 m/s 752 mm Hg 33%
15:00 +36°C° 0 mm 1 m/s 752 mm Hg 31%
16:00 +35°C° 0 mm 1 m/s 752 mm Hg 36%
17:00 +34°C° 0 mm 1 m/s 751 mm Hg 40%
18:00 +33°C° 0 mm 1 m/s 751 mm Hg 44%
19:00 +31°C° 0.1 mm 1 m/s 752 mm Hg 48%
20:00 +29°C° 0.1 mm 2 m/s 752 mm Hg 53%
21:00 +27°C° 0.1 mm 2 m/s 752 mm Hg 57%
22:00 +26°C° 0.1 mm 2 m/s 752 mm Hg 59%
23:00 +25°C° 0.1 mm 1 m/s 752 mm Hg 60%

Domani, 12 Agosto, Mercoledi

Tempo Temperatura Precipitazioni Vento Pressione Umidità
00:00 +25°C° 0.1 mm 1 m/s 752 mm Hg 62%
01:00 +24°C° 0.1 mm 1 m/s 752 mm Hg 64%
02:00 +24°C° 0.1 mm 1 m/s 752 mm Hg 66%
03:00 +23°C° 0.1 mm 1 m/s 751 mm Hg 69%
04:00 +24°C° 0.4 mm 1 m/s 751 mm Hg 70%
05:00 +24°C° 0.4 mm 1 m/s 752 mm Hg 72%
06:00 +24°C° 0.4 mm 1 m/s 752 mm Hg 73%
07:00 +26°C° 0.7 mm 1 m/s 752 mm Hg 69%
08:00 +27°C° 0.7 mm 1 m/s 752 mm Hg 64%
09:00 +29°C° 0.7 mm 2 m/s 752 mm Hg 59%
10:00 +31°C° 0 mm 2 m/s 752 mm Hg 54%
11:00 +32°C° 0 mm 2 m/s 752 mm Hg 48%
12:00 +35°C° 0 mm 3 m/s 752 mm Hg 43%
13:00 +36°C° 0 mm 3 m/s 751 mm Hg 40%
14:00 +36°C° 0 mm 3 m/s 751 mm Hg 37%
15:00 +37°C° 0 mm 3 m/s 750 mm Hg 35%
16:00 +36°C° 0 mm 2 m/s 750 mm Hg 40%
17:00 +35°C° 0 mm 2 m/s 750 mm Hg 44%
18:00 +32°C° 0 mm 2 m/s 749 mm Hg 49%
19:00 +30°C° 0.7 mm 2 m/s 750 mm Hg 55%
20:00 +29°C° 0.7 mm 2 m/s 750 mm Hg 61%
21:00 +27°C° 0.7 mm 2 m/s 751 mm Hg 66%
22:00 +26°C° 0.4 mm 1 m/s 751 mm Hg 71%
23:00 +25°C° 0.4 mm 1 m/s 750 mm Hg 75%

Dopodomani, 13 Agosto, Giovedi

Tempo Temperatura Precipitazioni Vento Pressione Umidità
00:00 +22°C° 0.4 mm 0 m/s 750 mm Hg 79%
01:00 +24°C° 0.1 mm 1 m/s 750 mm Hg 81%
02:00 +23°C° 0.1 mm 2 m/s 750 mm Hg 83%
03:00 +23°C° 0.1 mm 2 m/s 750 mm Hg 84%
04:00 +23°C° 0.1 mm 2 m/s 750 mm Hg 84%
05:00 +23°C° 0.1 mm 2 m/s 751 mm Hg 84%
06:00 +23°C° 0.1 mm 2 m/s 751 mm Hg 84%
07:00 +24°C° 0 mm 3 m/s 751 mm Hg 78%
08:00 +25°C° 0 mm 3 m/s 751 mm Hg 73%
09:00 +27°C° 0 mm 4 m/s 751 mm Hg 67%
10:00 +27°C° 0 mm 4 m/s 751 mm Hg 66%
11:00 +27°C° 0 mm 5 m/s 751 mm Hg 65%
12:00 +27°C° 0 mm 6 m/s 751 mm Hg 64%
13:00 +28°C° 0 mm 5 m/s 751 mm Hg 60%
14:00 +28°C° 0 mm 5 m/s 751 mm Hg 56%
15:00 +29°C° 0 mm 4 m/s 751 mm Hg 51%
16:00 +28°C° 0.6 mm 4 m/s 751 mm Hg 60%
17:00 +26°C° 0.6 mm 4 m/s 751 mm Hg 68%
18:00 +25°C° 0.6 mm 4 m/s 751 mm Hg 76%
19:00 +23°C° 0.2 mm 4 m/s 751 mm Hg 80%
20:00 +22°C° 0.2 mm 4 m/s 751 mm Hg 84%
21:00 +21°C° 0.2 mm 4 m/s 751 mm Hg 88%
22:00 +20°C° 0 mm 3 m/s 751 mm Hg 90%
23:00 +20°C° 0 mm 3 m/s 751 mm Hg 92%

14 Agosto, Venerdi

Tempo Temperatura Precipitazioni Vento Pressione Umidità
00:00 +19°C° 0 mm 3 m/s 751 mm Hg 94%
01:00 +19°C° 0 mm 2 m/s 751 mm Hg 94%
02:00 +19°C° 0 mm 2 m/s 752 mm Hg 94%
03:00 +20°C° 0 mm 2 m/s 752 mm Hg 94%
04:00 +20°C° 0 mm 2 m/s 752 mm Hg 94%
05:00 +20°C° 0 mm 2 m/s 752 mm Hg 93%
06:00 +20°C° 0 mm 2 m/s 752 mm Hg 92%
07:00 +21°C° 0.5 mm 2 m/s 752 mm Hg 88%
08:00 +22°C° 0.5 mm 3 m/s 752 mm Hg 84%
09:00 +24°C° 0.5 mm 3 m/s 753 mm Hg 81%
10:00 +25°C° 1 mm 4 m/s 753 mm Hg 77%
11:00 +25°C° 1 mm 4 m/s 753 mm Hg 73%
12:00 +26°C° 1 mm 5 m/s 753 mm Hg 69%
13:00 +26°C° 0.2 mm 5 m/s 753 mm Hg 67%
14:00 +26°C° 0.2 mm 5 m/s 753 mm Hg 65%
15:00 +26°C° 0.2 mm 5 m/s 753 mm Hg 64%
16:00 +25°C° 0 mm 4 m/s 753 mm Hg 65%
17:00 +25°C° 0 mm 3 m/s 753 mm Hg 67%
18:00 +24°C° 0 mm 3 m/s 753 mm Hg 68%
19:00 +23°C° 0 mm 2 m/s 753 mm Hg 71%
20:00 +21°C° 0 mm 2 m/s 754 mm Hg 74%
21:00 +21°C° 0 mm 1 m/s 754 mm Hg 78%
22:00 +21°C° 0 mm 1 m/s 754 mm Hg 80%
23:00 +21°C° 0 mm 1 m/s 754 mm Hg 82%

15 Agosto, Sabato

Tempo Temperatura Precipitazioni Vento Pressione Umidità
00:00 +20°C° 0 mm 1 m/s 754 mm Hg 84%
01:00 +20°C° 0 mm 1 m/s 753 mm Hg 86%
02:00 +19°C° 0 mm 1 m/s 753 mm Hg 88%
03:00 +19°C° 0 mm 1 m/s 753 mm Hg 90%
04:00 +19°C° 0 mm 1 m/s 753 mm Hg 88%
05:00 +19°C° 0 mm 1 m/s 753 mm Hg 86%
06:00 +20°C° 0 mm 1 m/s 753 mm Hg 85%
07:00 +21°C° 0 mm 1 m/s 754 mm Hg 78%
08:00 +23°C° 0 mm 1 m/s 754 mm Hg 72%
09:00 +25°C° 0 mm 1 m/s 754 mm Hg 65%
10:00 +26°C° 0 mm 1 m/s 753 mm Hg 60%
11:00 +27°C° 0 mm 1 m/s 753 mm Hg 55%
12:00 +29°C° 0 mm 1 m/s 753 mm Hg 49%
13:00 +29°C° 0 mm 1 m/s 753 mm Hg 47%
14:00 +29°C° 0 mm 1 m/s 752 mm Hg 44%
15:00 +30°C° 0 mm 1 m/s 752 mm Hg 41%
16:00 +29°C° 0 mm 1 m/s 752 mm Hg 46%
17:00 +28°C° 0 mm 1 m/s 752 mm Hg 50%
18:00 +27°C° 0 mm 1 m/s 752 mm Hg 54%
19:00 +26°C° 0 mm 2 m/s 752 mm Hg 58%
20:00 +24°C° 0 mm 2 m/s 752 mm Hg 62%
21:00 +23°C° 0 mm 2 m/s 752 mm Hg 66%
22:00 +21°C° 0 mm 2 m/s 752 mm Hg 70%
23:00 +21°C° 0 mm 2 m/s 752 mm Hg 73%

16 Agosto, Domenica

Tempo Temperatura Precipitazioni Vento Pressione Umidità
00:00 +20°C° 0 mm 2 m/s 752 mm Hg 77%
01:00 +20°C° 0 mm 2 m/s 752 mm Hg 78%
02:00 +20°C° 0 mm 2 m/s 752 mm Hg 79%
03:00 +19°C° 0 mm 2 m/s 751 mm Hg 80%
04:00 +20°C° 0 mm 2 m/s 751 mm Hg 79%
05:00 +20°C° 0 mm 2 m/s 751 mm Hg 78%
06:00 +20°C° 0 mm 2 m/s 751 mm Hg 77%
07:00 +24°C° 0 mm 2 m/s 752 mm Hg 69%
08:00 +26°C° 0 mm 3 m/s 752 mm Hg 62%
09:00 +28°C° 0 mm 3 m/s 752 mm Hg 54%
10:00 +30°C° 0 mm 3 m/s 752 mm Hg 49%
11:00 +31°C° 0 mm 3 m/s 752 mm Hg 45%
12:00 +34°C° 0 mm 3 m/s 752 mm Hg 40%
13:00 +34°C° 0 mm 3 m/s 752 mm Hg 40%
14:00 +34°C° 0 mm 3 m/s 752 mm Hg 39%
15:00 +34°C° 0 mm 3 m/s 751 mm Hg 38%
16:00 +31°C° 0.1 mm 3 m/s 751 mm Hg 44%
17:00 +30°C° 0.1 mm 3 m/s 752 mm Hg 50%
18:00 +28°C° 0.1 mm 3 m/s 752 mm Hg 56%
19:00 +26°C° 0.6 mm 3 m/s 752 mm Hg 62%
20:00 +24°C° 0.6 mm 2 m/s 752 mm Hg 69%
21:00 +21°C° 0.6 mm 2 m/s 753 mm Hg 75%
22:00 +20°C° 0 mm 2 m/s 753 mm Hg 80%
23:00 +20°C° 0 mm 2 m/s 753 mm Hg 85%
Mostrare altro